Shenandoah, IA

4:02 AM CST on January 24, 2018 (GMT -0600)
Shenandoah Municipal

Weather History for KSDA - November, 2010

Change the Weather History Date:

Thursday, November 25, 2010

  Actual Average Record
Temperature  
Mean Temperature 24 °F -  
Max Temperature 32 °F 46 °F 71 °F (1960)
Min Temperature 17 °F 25 °F 7 °F (1980)
Degree Days  
Heating Degree Days 40    
Moisture  
Dew Point 8 °F    
Average Humidity 55    
Maximum Humidity 74    
Minimum Humidity 23    
Precipitation  
Precipitation 0.00 in - - ()
Sea Level Pressure  
Sea Level Pressure 29.99 in    
Wind  
Wind Speed 10 mph (WNW)    
Max Wind Speed 20 mph    
Max Gust Speed 29 mph    
Visibility 10 miles    
Events      
Averages and records for this station are not official NWS values.
T = Trace of Precipitation, MM = Missing Value Source: NWS Daily Summary

Daily Weather History Graph

Daily Weather History Graph

Search for Another Location

Airport or City:

Trip Planner

Search our weather history database for the weather conditions in past years. The results will help you decide how hot, cold, wet, or windy it might be!

Date:

Astronomy

Nov. 25, 2010 Rise Set
Actual Time 7:20 AM CST 4:57 PM CST
Civil Twilight 6:49 AM CST 5:27 PM CST
Nautical Twilight 6:16 AM CST 6:00 PM CST
Astronomical Twilight 5:43 AM CST 6:33 PM CST
Moon 8:55 PM CST (11/25) 10:50 AM CST (11/25)
Length of Visible Light 10h 37m
Length of Day
9h 36m
Waning Gibbous, 82% of the Moon is Illuminated
Nov 25
Waning Gibbous
Nov 28
Last Quarter
Dec 5
New
Dec 13
First Quarter
Dec 21
Full

Hourly Weather History & Observations

Time (CST) Temp. Windchill Dew Point Humidity Pressure Visibility Wind Dir Wind Speed Gust Speed Precip Events Conditions
12:15 AM 19.4 °F 6.6 °F 12.2 °F 74% 29.89 in 10.0 mi NNW 12.7 mph - N/A   Clear
12:35 AM 19.4 °F 5.5 °F 10.4 °F 68% 29.89 in 10.0 mi North 15.0 mph 20.7 mph N/A   Clear
12:55 AM 19.4 °F 7.9 °F 10.4 °F 68% 29.89 in 10.0 mi NNW 10.4 mph - N/A   Clear
1:15 AM 17.6 °F 3.7 °F 10.4 °F 73% 29.89 in 10.0 mi NNW 13.8 mph - N/A   Clear
1:35 AM 17.6 °F 5.0 °F 10.4 °F 73% 29.90 in 10.0 mi NNW 11.5 mph - N/A   Clear
1:55 AM 17.6 °F 5.7 °F 10.4 °F 73% 29.91 in 10.0 mi NNW 10.4 mph 18.4 mph N/A   Scattered Clouds
2:15 AM 17.6 °F 6.4 °F 10.4 °F 73% 29.95 in 10.0 mi NNW 9.2 mph - N/A   Scattered Clouds
2:35 AM 19.4 °F 7.9 °F 10.4 °F 68% 29.95 in 10.0 mi NNW 10.4 mph - N/A   Scattered Clouds
2:55 AM 19.4 °F 6.6 °F 10.4 °F 68% 29.95 in 10.0 mi NNW 12.7 mph 17.3 mph N/A   Scattered Clouds
3:15 AM 19.4 °F 7.9 °F 10.4 °F 68% 29.96 in 10.0 mi NNW 10.4 mph - N/A   Clear
3:35 AM 19.4 °F 10.4 °F 10.4 °F 68% 29.98 in 10.0 mi NNW 6.9 mph - N/A   Clear
3:55 AM 19.4 °F 11.5 °F 10.4 °F 68% 29.99 in 10.0 mi NNW 5.8 mph - N/A   Clear
4:15 AM 19.4 °F 11.5 °F 10.4 °F 68% 29.99 in 10.0 mi North 5.8 mph - N/A   Clear
4:35 AM 19.4 °F 11.5 °F 10.4 °F 68% 29.99 in 10.0 mi North 5.8 mph - N/A   Clear
4:55 AM 19.4 °F 11.5 °F 10.4 °F 68% 30.00 in 10.0 mi NNW 5.8 mph - N/A   Clear
5:15 AM 19.4 °F 14.3 °F 10.4 °F 68% 29.99 in 10.0 mi NW 3.5 mph - N/A   Clear
5:35 AM 19.4 °F 12.8 °F 12.2 °F 74% 30.00 in 10.0 mi West 4.6 mph - N/A   Clear
5:55 AM 19.4 °F 12.8 °F 10.4 °F 68% 30.00 in 10.0 mi WNW 4.6 mph - N/A   Scattered Clouds
6:15 AM 19.4 °F 10.4 °F 10.4 °F 68% 29.99 in 10.0 mi NW 6.9 mph - N/A   Scattered Clouds
6:35 AM 19.4 °F 9.5 °F 10.4 °F 68% 30.01 in 10.0 mi WNW 8.1 mph - N/A   Scattered Clouds
6:55 AM 17.6 °F 12.3 °F 10.4 °F 73% 30.00 in 10.0 mi WNW 3.5 mph - N/A   Clear
7:15 AM 17.6 °F 10.7 °F 10.4 °F 73% 30.01 in 10.0 mi WNW 4.6 mph - N/A   Clear
7:35 AM 17.6 °F 12.3 °F 10.4 °F 73% 30.00 in 10.0 mi WNW 3.5 mph - N/A   Clear
7:55 AM 17.6 °F - 10.4 °F 73% 30.00 in 10.0 mi Calm Calm - N/A   Clear
8:15 AM 19.4 °F 10.4 °F 10.4 °F 68% 30.02 in 10.0 mi WNW 6.9 mph - N/A   Clear
8:35 AM 19.4 °F 7.9 °F 10.4 °F 68% 30.03 in 10.0 mi WNW 10.4 mph - N/A   Clear
8:55 AM 21.2 °F 10.1 °F 12.2 °F 68% 30.02 in 10.0 mi WNW 10.4 mph 17.3 mph N/A   Clear
9:15 AM 21.2 °F 11.7 °F 12.2 °F 68% 30.03 in 10.0 mi WNW 8.1 mph - N/A   Clear
9:35 AM 23.0 °F 13.1 °F 10.4 °F 59% 30.04 in 10.0 mi West 9.2 mph - N/A   Clear
9:55 AM 23.0 °F 13.1 °F 10.4 °F 59% 30.03 in 10.0 mi NW 9.2 mph - N/A   Clear
10:15 AM 23.0 °F 13.1 °F 12.2 °F 63% 30.03 in 10.0 mi WNW 9.2 mph - N/A   Clear
10:35 AM 24.8 °F 17.9 °F 12.2 °F 59% 30.02 in 10.0 mi WNW 5.8 mph - N/A   Clear
10:55 AM 26.6 °F 17.5 °F 14.0 °F 59% 30.02 in 10.0 mi West 9.2 mph - N/A   Clear
11:15 AM 26.6 °F 16.8 °F 12.2 °F 55% 30.01 in 10.0 mi West 10.4 mph - N/A   Clear
11:35 AM 28.4 °F 20.4 °F 12.2 °F 51% 30.00 in 10.0 mi West 8.1 mph - N/A   Clear
12:15 PM 30.2 °F 18.1 °F 8.6 °F 40% 29.98 in 10.0 mi West 18.4 mph 25.3 mph N/A   Clear
12:35 PM 30.2 °F 18.1 °F 8.6 °F 40% 29.97 in 10.0 mi West 18.4 mph - N/A   Clear
12:55 PM 30.2 °F 19.8 °F 5.0 °F 34% 29.98 in 10.0 mi West 13.8 mph 23.0 mph N/A   Clear
1:15 PM 32.0 °F 21.2 °F 5.0 °F 32% 29.98 in 10.0 mi West 16.1 mph 19.6 mph N/A   Clear
1:35 PM 32.0 °F 22.1 °F 5.0 °F 32% 29.98 in 10.0 mi West 13.8 mph 17.3 mph N/A   Clear
1:55 PM 32.0 °F 20.5 °F 1.4 °F 27% 29.98 in 10.0 mi West 18.4 mph 24.2 mph N/A   Clear
2:15 PM 32.0 °F 20.1 °F -0.4 °F 25% 29.98 in 10.0 mi WNW 19.6 mph 26.5 mph N/A   Clear
2:35 PM 32.0 °F 20.8 °F 1.4 °F 27% 29.99 in 10.0 mi WNW 17.3 mph 26.5 mph N/A   Clear
2:55 PM 32.0 °F 20.5 °F -2.2 °F 23% 29.99 in 10.0 mi WNW 18.4 mph 28.8 mph N/A   Clear
3:15 PM 32.0 °F 20.1 °F -2.2 °F 23% 29.99 in 10.0 mi NW 19.6 mph 26.5 mph N/A   Clear
3:35 PM 32.0 °F 21.2 °F -2.2 °F 23% 29.99 in 10.0 mi WNW 16.1 mph 24.2 mph N/A   Clear
3:55 PM 32.0 °F 21.2 °F -0.4 °F 25% 29.99 in 10.0 mi WNW 16.1 mph 25.3 mph N/A   Clear
4:15 PM 30.2 °F 20.2 °F -0.4 °F 27% 29.99 in 10.0 mi WNW 12.7 mph - N/A   Clear
4:35 PM 30.2 °F 21.9 °F 1.4 °F 29% 29.99 in 10.0 mi WNW 9.2 mph - N/A   Clear
4:55 PM 28.4 °F 20.4 °F 3.2 °F 34% 30.00 in 10.0 mi West 8.1 mph - N/A   Clear
5:15 PM 28.4 °F 21.2 °F 3.2 °F 34% 30.00 in 10.0 mi WNW 6.9 mph - N/A   Clear
5:35 PM 26.6 °F 18.2 °F 5.0 °F 40% 30.02 in 10.0 mi WNW 8.1 mph - N/A   Clear
5:55 PM 26.6 °F 20.0 °F 5.0 °F 40% 30.02 in 10.0 mi WNW 5.8 mph - N/A   Clear
6:15 PM 24.8 °F - 5.0 °F 43% 30.03 in 10.0 mi Calm Calm - N/A   Scattered Clouds
6:35 PM 23.0 °F 17.0 °F 5.0 °F 46% 30.03 in 10.0 mi WSW 4.6 mph - N/A   Clear
6:55 PM 21.2 °F 14.9 °F 8.6 °F 58% 30.03 in 10.0 mi WSW 4.6 mph - N/A   Scattered Clouds
7:15 PM 21.2 °F 16.4 °F 8.6 °F 58% 30.04 in 10.0 mi WSW 3.5 mph - N/A   Clear
7:35 PM 21.2 °F - 8.6 °F 58% 30.04 in 10.0 mi Calm Calm - N/A   Clear
7:55 PM 21.2 °F - 8.6 °F 58% 30.04 in 10.0 mi Calm Calm - N/A   Clear
8:15 PM 21.2 °F - 8.6 °F 58% 30.04 in 10.0 mi Calm Calm - N/A   Clear
8:35 PM 21.2 °F - 8.6 °F 58% 30.05 in 10.0 mi Calm Calm - N/A   Clear
9:15 PM 17.6 °F 8.2 °F 8.6 °F 68% 30.05 in 10.0 mi WSW 6.9 mph - N/A   Clear
9:35 PM 19.4 °F 12.8 °F 10.4 °F 68% 30.05 in 10.0 mi WSW 4.6 mph - N/A   Scattered Clouds
9:55 PM 19.4 °F 12.8 °F 10.4 °F 68% 30.05 in 10.0 mi SW 4.6 mph - N/A   Scattered Clouds
10:15 PM 19.4 °F 11.5 °F 8.6 °F 63% 30.06 in 10.0 mi West 5.8 mph - N/A   Clear
10:35 PM 21.2 °F 12.6 °F 10.4 °F 63% 30.06 in 10.0 mi West 6.9 mph - N/A   Scattered Clouds
10:55 PM 19.4 °F 12.8 °F 10.4 °F 68% 30.05 in 10.0 mi West 4.6 mph - N/A   Scattered Clouds
11:15 PM 19.4 °F 10.4 °F 10.4 °F 68% 30.05 in 10.0 mi West 6.9 mph - N/A   Clear
11:35 PM 17.6 °F 9.3 °F 10.4 °F 73% 30.05 in 10.0 mi West 5.8 mph - N/A   Clear
11:55 PM 17.6 °F 9.3 °F 8.6 °F 68% 30.06 in 10.0 mi West 5.8 mph - N/A   Clear